Location: Newark
(45.8667°N, 9.7333°E)
Time: 13:24:08
(UTC+00:00)

Transit 4A - Pass Details

Date: 30 January 2020
Orbit: 872 x 973 km, 66.8° (Epoch: 22 February)

Event Time Altitude Azimuth Distance (km) Brightness Sun altitude
Rises 12:17:39 0° 330° (NNW) 3,474 10.5 25.7°
Reaches altitude 10° 12:20:21 10° 339° (NNW) 2,530 9.8 25.6°
Maximum altitude 12:25:42 36° 45° (NE) 1,357 8.6 25.4°
Drops below altitude 10° 12:31:03 10° 112° (ESE) 2,536 10.4 25.1°
Sets 12:33:46 0° 121° (ESE) 3,482 11.1 25.0°
